User: anonymous   Login
Location: Unspecified
(0.0000°N, 0.0000°E)
Time: 00:19:28
(UTC+00:00)
Language:

SAR-Lupe-2 - Orbit

View from above orbital plane
View from above orbital plane
View from above satellite
View from above satellite

Ground track
Ground track

The orbit data is extracted from the following two-line orbital elements,

1 31797U 07030A   16213.88606115 0.00002800  00000-0  10208-3 0    02
2 31797  98.0799 291.8704 0002502  70.3220 289.6779 15.28202213    09
Epoch (UTC): 31 July 2016 21:15:55
Eccentricity: 0.0002502
inclination: 98.0799°
perigee height: 479 km
apogee height: 483 km
right ascension of ascending node: 291.8704°
argument of perigee: 70.3220°
revolutions per day: 15.28202213
mean anomaly at epoch: 289.6779°
orbit number at epoch: 0

The dashed part of the orbit path shows where the satellite is in the earth's shadow,  

DLR